Location: Newark
(52.2090°N, 4.1550°W)
Time: 16:18:56
(UTC+00:00)

Explorer 7 - Pass Details

Date: 28 September 2019
Orbit: 485 x 680 km, 50.3° (Epoch: 14 October)

Event Time Altitude Azimuth Distance (km) Brightness Sun altitude
Rises 21:30:20 0° 249° (WSW) 2,752 10.7 -30.3°
Enters shadow 21:32:21 - 246° (WSW) 1,959 9.8 -30.5°
Reaches altitude 10° 21:32:32 10° 246° (WSW) 1,889 - -30.5°
Maximum altitude 21:36:48 60° 167° (SSE) 696 - -31.0°
Drops below altitude 10° 21:41:22 10° 88° (E) 2,015 - -31.5°
Sets 21:43:46 0° 84° (E) 2,954 - -31.8°
